sat.trackr.live / text

‹ back to catalog

STARLINK-34959

NORAD 65246 · 2025-179M

PAYLOAD ACTIVE UNKNOWN

§ Identity

Operator
Country
US
Launch date
2025-08-18
Launch site
AFWTR
Launch vehicle
Mass (kg)
RCS (m²)

Purposes: comms

External: N2YO · Heavens-Above · Gunter

§ Orbital elements

Epoch: 2026-09-20T08:37:20.715456Z

Period
93.91 min
Inclination
97.2844°
Eccentricity
0.0001576
Mean motion
15.33442479 rev/d
Perigee alt
464.5 km
Apogee alt
466.6 km
Semi-major
6,843.7 km
B*
3.0907e-4
RAAN
302.7441°
Arg perigee
107.4864°
Mean anomaly
252.6551°
Rev number
6,130

§ Raw data

STARLINK-349591 65246U 25179M   26263.35926754  .00009915  00000+0  30907-3 0  99922 65246  97.2844 302.7441 0001576 107.4864 252.6551 15.33442479 61307

JSON: /api/v1/satellites/65246 · /tle

For live sub-satellite position, see the globe view (requires WebGL).

§ Visibility from observer

Set your observer location to see the next 7 days of passes ≥ 10°. The values pass through the URL so the page stays shareable.

No JS? Fill the form by hand. The geolocation button needs JavaScript.